Location: Unspecified
(0.0000°N, 0.0000°E)
Time: 01:59:51
(UTC+00:00)

FREGAT DEB - Visible Passes

Search period start: 19 November 2025 00:00
Search period end: 29 November 2025 00:00
Orbit: 1149 x 4679 km, 52.0° (Epoch: 28 August)

Date Brightness Start Highest point End Pass type
(mag) Time Alt. Az. Time Alt. Az. Time Alt. Az.
19 Nov ? 03:08:21 26° WSW 03:11:49 26° WSW 03:28:10 10° S visible
19 Nov ? 20:19:58 10° NNE 20:22:14 12° NNE 20:22:14 12° NNE visible
19 Nov ? 22:56:03 10° NNW 23:39:48 41° ESE 23:51:47 10° SE visible
20 Nov ? 02:13:43 42° WSW 02:13:43 42° WSW 02:33:07 10° S visible
20 Nov ? 21:58:36 10° NNW 22:45:07 24° ESE 22:52:10 10° ESE visible
21 Nov ? 01:19:03 58° SSW 01:19:03 58° SSW 01:36:56 10° SSE visible
21 Nov ? 21:02:08 10° N 21:50:23 10° ESE 21:50:29 10° ESE visible
22 Nov ? 00:24:18 59° SSE 00:24:18 59° SSE 00:39:54 10° SSE visible
22 Nov ? 02:58:13 21° WSW 03:01:44 21° WSW 03:16:33 10° SSW visible
22 Nov ? 20:07:22 10° N 20:13:39 15° NNE 20:13:39 15° NNE visible
22 Nov ? 22:45:33 10° NNW 23:29:30 45° SE 23:42:01 10° SE visible
23 Nov ? 02:03:24 36° WSW 02:03:24 36° WSW 02:22:17 10° S visible
23 Nov ? 21:47:55 10° NNW 22:34:37 28° ESE 22:43:00 10° SE visible
24 Nov ? 01:08:31 51° SW 01:08:31 51° SW 01:26:31 10° SSE visible
24 Nov ? 20:51:13 10° N 21:39:40 14° ESE 21:42:18 10° ESE visible
25 Nov ? 00:13:34 58° S 00:13:34 58° S 00:29:50 10° SSE visible
25 Nov ? 02:47:27 16° WSW 02:52:11 16° SW 03:04:27 10° SSW visible
25 Nov ? 19:55:47 10° N 20:44:38 - ESE 20:06:08 20° NNE visible
25 Nov ? 22:35:27 10° NNW 23:18:31 49° SE 23:32:20 10° SE visible
26 Nov ? 01:52:23 29° WSW 01:52:57 30° WSW 02:11:29 10° S visible
26 Nov ? 19:03:46 10° NNE 19:12:36 13° NE 19:12:36 13° NE visible
26 Nov ? 21:37:38 10° NNW 22:23:21 35° ESE 22:33:51 10° SE visible
27 Nov ? 00:57:12 45° SW 00:57:12 45° SW 01:16:12 10° S visible
27 Nov ? 20:40:43 10° NNW 21:28:03 21° ESE 21:33:57 10° ESE visible
27 Nov ? 23:24:54 10° NW 00:01:53 57° SSW 00:19:54 10° SSE visible
28 Nov ? 02:35:43 10° WSW 02:43:12 12° SW 02:50:41 10° SW visible
28 Nov ? 19:44:52 10° N 20:32:34 - ESE 20:00:17 27° NE visible
28 Nov ? 22:25:46 10° NNW 23:06:23 57° SSE 23:22:46 10° SSE visible
